Regional Weather Roundup
Issued by NWS

Home | Current Version | Previous Version | Text Only | Print | Product List | Glossary On
Versions: 1 2 3 4 5 6 7 8 9 10 11 12 13 14 15 16 17 18 19 20 21 22 23 24 25 26 27 28 29 30 31 32 33 34 35 36 37 38 39 40 41 42 43 44 45 46 47 48 49 50
000
ASUS46 KSEW 241310
RWRWA

WASHINGTON REGIONAL WEATHER ROUNDUP
NATIONAL WEATHER SERVICE SEATTLE WA
500 AM PST TUE JAN 24 2017

NOTE:"FAIR" INDICATES FEW OR NO CLOUDS BELOW 12,000 FEET WITH NO
SIGNIFICANT WEATHER AND/OR OBSTRUCTIONS TO VISIBILITY.

WAZ507-509-555>559-241400-
SEATTLE, TACOMA, EVERETT, AND VICINITY

CITY           SKY/WX    TMP DP  RH WIND       PRES   REMARKS
EVERETT        CLOUDY    34  33  96 E3        30.05S
BOEING FIELD   PTCLDY    31  30  96 S5        30.08R
RENTON         CLOUDY    32  30  92 CALM      30.08R FOG
SEATAC AIRPORT PTCLDY    31  29  92 SE3       30.06R
JBLM-MCCHORD   CLEAR     26  26 100 CALM      30.06R
PUYALLUP         N/A     27  27 100 CALM      30.06R
BREMERTON      CLOUDY    30  28  93 CALM      30.08S
JBLM-FT LEWIS  PTCLDY    28  28 100 CALM      30.06R
TACOMA NARROWS FOG       36  36 100 CALM      30.06R VSB 1/4
$$

WAZ001-503-506-510-514-515-241400-
NORTH INTERIOR

CITY           SKY/WX    TMP DP  RH WIND       PRES   REMARKS
BELLINGHAM     CLOUDY    35  35 100 CALM      30.06R
FRIDAY HARBOR  CLOUDY    35  33  92 CALM      30.07R
EASTSOUND      CLOUDY    37  37 100 NW5       30.05R
PORT ANGELES   CLEAR     36  30  79 W8        30.06R
EDIZ HOOK      FAIR      37  33  86 W3        30.07R
PORT TOWNSEND  MOCLDY    23  23 100 CALM      30.08R
NAS WHIDBEY    MOCLDY    39  35  86 SE7       30.10R
ARLINGTON      NOT AVBL
BURLINGTON     CLOUDY    34  32  93 CALM      30.07R
$$

WAZ020-022-039-040-504-511-512-241400-
SOUTHWEST INTERIOR

CITY           SKY/WX    TMP DP  RH WIND       PRES   REMARKS
SHELTON        MOCLDY    27  25  92 CALM      30.04R
OLYMPIA        FOG       29  29 100 CALM      30.07S VSB 1/4
CHEHALIS       FOG       30  30 100 SW3       30.08R VSB 3/4
KELSO          PTCLDY    26  25  96 CALM      30.09R
VANCOUVER      CLOUDY    32  31  96 CALM      30.08R
SCAPPOOSE, OR  PTCLDY    29  28  96 NW3       30.08R
PORTLAND, OR   PTCLDY    30  29  96 CALM      30.09R
$$

WAZ021-516-517-241400-
WASHINGTON COAST

CITY           SKY/WX    TMP DP  RH WIND       PRES   REMARKS
FORKS          MOCLDY    32  32 100 E6        30.05S
HOQUIAM        CLEAR     30  30 100 NE5       30.07R FOG
ASTORIA, OR    CLEAR     32  27  81 SE3       30.06S
$$

WAZ019-023-024-040-567>569-241400-
CASCADE MOUNTAINS AND COLUMBIA GORGE

CITY           SKY/WX    TMP DP  RH WIND       PRES   REMARKS
STAMPEDE PASS  NOT AVBL
TROUTDALE, OR  CLEAR     28  26  92 CALM      30.08R
THE DALLES, OR CLOUDY    33  30  88 CALM      30.08R
$$

WAZ026-027-041>044-520-521-241400-
EAST SLOPES

CITY           SKY/WX    TMP DP  RH WIND       PRES   REMARKS
OMAK           CLOUDY    32  29  88 CALM      29.99R FOG
WENATCHEE      CLOUDY    25  23  92 CALM      30.00R
ELLENSBURG     FOG       23  20  88 E5        29.99R VSB 1/4
YAKIMA         FOG       24  21  88 W7        30.04R VSB 1/2
$$

WAZ028-034-035-241400-
COLUMBIA BASIN

CITY           SKY/WX    TMP DP  RH WIND       PRES   REMARKS
EPHRATA        CLOUDY    27  24  89 N3        29.99R
MOSES LAKE     CLOUDY    25  23  92 CALM      30.01R
PASCO          CLOUDY    32  30  92 CALM      30.06R
HERMISTON, OR  CLOUDY    31  31 100 W10       30.05R FOG     WCI  22
$$

WAZ036>038-241400-
NORTHEAST WASHINGTON

CITY           SKY/WX    TMP DP  RH WIND       PRES   REMARKS
SPOKANE GEIGER LGT SNOW  29  28  96 SW7       29.93R FOG
SPOKANE FELTS  CLOUDY    32  31  96 W3        29.95S
FAIRCHILD AFB  FLURRIES  28  28 100 W7        29.92S
COEURDALENE,ID CLOUDY    30  30 100 CALM      29.93S FOG
DEER PARK      FOG       31  29  92 S5        29.94S VSB 1
$$

WAZ029>033-241400-
SOUTHEAST WASHINGTON

CITY           SKY/WX    TMP DP  RH WIND       PRES   REMARKS
PULLMAN        FOG       29  26  89 W10       29.95R VSB 1/4 WCI  20
LEWISTON, ID   CLOUDY    32  28  85 SW3       29.99R
WALLA WALLA    CLOUDY    31  28  89 CALM      30.02R
PENDLETON, OR  CLOUDY    30  30 100 W3        30.00R
$$



USA.gov is the U.S. government's official web portal to all federal, state and local government web resources and services.